EHI
1 4 6 6 5 4 1 0 0 0 0 0 0 0 0 1 2 2 2 1 2 3 3 3 2 1 2 3 4 2 0 0 0 0 0 0 1 2 2 1 0 0 0
1 4 6 6 5 5 2 0 0 0 0 0 0 0 0 0 1 1 1 0 1 2 2 2 1 1 1 2 3 2 0 0 0 0 0 1 2 3 3 2 1 1 0
1 3 5 5 6 5 3 1 1 0 0 0 0 0 0 0 0 0 0 0 1 1 1 0 0 0 0 0 1 1 0 0 1 1 1 1 3 3 3 3 2 1 1
0 1 3 4 5 5 4 3 2 1 0 0 0 0 0 0 0 0 0 0 1 1 0 0 0 0 0 0 0 0 0 0 1 2 2 3 3 3 3 2 1 1 0
0 1 2 3 4 4 4 4 3 2 1 0 0 1 1 1 0 0 0 0 1 1 2 1 0 0 0 0 0 1 0 0 0 1 2 2 2 2 1 1 0 0 0
0 1 2 3 3 3 4 5 4 3 2 1 1 2 2 1 0 1 1 1 1 2 2 1 0 0 0 0 0 0 0 0 0 0 1 1 1 1 0 0 0 0 0
0 1 2 3 3 3 4 5 5 3 3 2 2 3 2 1 0 1 1 1 1 1 1 1 0 0 0 0 0 0 0 0 0 0 0 0 0 0 0 0 0 0 0
0 1 2 2 3 4 4 4 4 3 2 2 2 3 2 1 0 0 0 0 0 1 2 2 1 0 0 0 0 0 0 0 0 0 0 0 0 0 0 0 0 0 0
0 0 1 1 2 3 4 4 5 4 2 1 2 3 3 1 0 0 0 0 0 1 3 3 1 1 1 1 0 0 0 0 0 0 0 0 0 0 0 0 0 0 0
0 0 0 0 0 1 2 3 4 4 3 2 3 4 4 2 0 0 0 0 0 0 1 2 1 1 2 2 0 0 0 0 0 0 0 0 0 0 0 1 1 1 1
0 0 0 0 0 0 0 1 2 3 3 3 3 4 2 1 0 0 0 0 0 0 0 0 1 1 1 1 0 0 0 0 0 0 0 0 0 0 0 1 2 2 2
0 0 0 0 0 0 0 0 0 2 2 2 2 2 1 0 0 0 0 1 1 0 0 0 0 1 0 0 0 0 0 0 0 0 0 0 0 0 0 1 1 1 1
0 0 1 0 0 0 0 0 0 2 3 3 2 1 0 0 0 1 1 2 3 2 1 0 1 1 0 0 0 0 0 0 1 1 1 0 0 0 0 0 0 0 0
0 0 0 0 0 1 1 0 0 1 2 3 2 1 0 0 0 1 2 2 2 2 2 1 1 1 0 0 0 0 0 0 1 2 2 1 0 0 1 1 1 0 0
0 0 0 0 1 3 3 1 1 1 1 2 2 1 1 0 1 2 3 2 1 1 1 1 1 1 0 0 0 0 0 0 0 1 1 1 1 1 2 3 3 2 1
1 0 0 1 2 4 4 2 1 0 0 1 2 2 2 1 1 3 2 2 1 0 0 1 1 0 0 0 1 1 1 1 0 0 0 1 1 2 3 4 4 3 3
2 1 1 1 2 4 4 3 1 0 0 0 1 2 2 1 2 3 1 0 0 0 0 0 1 0 0 1 2 2 2 2 1 0 0 0 1 1 2 3 4 4 4
2 3 3 2 2 3 3 3 2 1 1 0 1 1 1 1 2 2 1 0 0 0 0 0 0 0 1 1 3 3 2 2 1 0 0 0 0 0 1 3 3 3 3
2 3 4 3 3 3 3 3 3 3 2 1 1 1 1 1 1 1 1 1 0 0 0 0 0 1 2 2 2 2 1 1 1 0 0 0 0 0 1 3 3 3 3
2 3 4 3 3 3 3 3 3 3 3 3 2 2 1 1 0 0 1 2 1 0 0 0 0 1 2 2 1 1 0 0 0 0 0 0 0 0 0 1 1 2 3
7 6 6 5 4 4 4 4 3 3 3 4 4 3 2 1 1 1 2 2 1 0 0 0 0 0 1 1 0 0 0 0 0 0 0 0 0 0 0 0 0 1 2
11 10 9 8 8 6 5 5 4 4 4 5 6 5 4 4 3 2 2 1 0 0 0 0 0 0 0 0 0 0 0 0 0 0 1 0 0 0 0 0 0 1 2
13 13 13 13 13 11 9 8 7 6 6 7 8 8 7 7 5 4 3 1 0 0 0 0 0 0 0 0 0 0 0 0 0 0 1 1 1 1 0 0 0 1 3
12 14 18 20 20 18 15 12 9 7 6 7 8 8 8 7 6 5 3 1 1 0 0 0 0 0 0 0 1 0 0 1 1 0 1 3 4 2 1 0 0 1 3
12 14 21 27 27 24 21 17 13 10 8 7 7 7 7 6 6 6 4 3 2 1 0 0 0 0 0 1 1 1 1 1 1 0 1 3 4 2 1 1 0 1 2
11 13 20 29 31 28 24 19 15 12 9 7 6 6 6 6 6 6 4 3 2 1 0 0 0 1 1 1 2 2 1 1 1 0 0 1 2 1 1 1 0 0 1
Wind_Speed
5 7 9 7 6 6 6 6 6 5 6 6 6 6 6 7 8 8 10 9 10 11 12 12 12 13 12 13 13 13 13 13 13 13 13 13 12 11 11 10 9 9 10
5 7 9 7 7 7 6 6 6 6 6 6 6 7 7 8 9 9 10 10 10 11 11 12 13 13 13 13 13 13 13 13 13 13 13 13 12 11 9 8 5 7 10
6 7 8 8 7 7 7 7 7 7 7 7 7 8 9 9 9 9 10 10 11 11 11 13 13 13 13 13 13 13 12 12 12 12 12 10 10 10 9 8 8 9 9
6 7 8 9 7 7 7 8 8 8 7 8 8 9 9 10 10 10 10 11 10 11 13 13 13 13 13 12 12 13 12 12 12 11 8 8 9 10 9 9 9 9 9
7 7 9 7 7 7 7 7 8 8 8 8 9 9 9 10 10 11 11 12 12 13 14 13 13 13 13 12 12 12 12 12 11 9 7 7 7 10 9 9 9 9 9
7 6 9 7 7 7 8 8 8 9 9 9 9 9 9 9 11 12 12 13 13 14 14 12 12 13 13 12 11 12 12 11 10 7 6 6 7 10 9 9 9 8 8
6 7 8 7 6 7 8 8 9 9 9 9 9 8 9 10 11 12 12 12 13 13 13 12 12 12 12 11 11 11 11 9 6 7 6 6 7 9 9 8 8 8 8
6 7 8 8 7 7 8 8 9 9 9 9 9 9 9 10 11 12 12 12 12 13 12 12 12 12 11 11 10 10 9 7 7 7 6 6 8 9 9 8 7 7 7
6 6 6 7 7 7 7 8 8 9 9 9 9 10 10 11 11 12 12 12 12 12 12 12 12 12 11 11 10 9 8 6 5 5 6 6 8 8 8 7 7 7 7
6 6 6 5 6 6 8 8 8 9 9 9 9 10 10 12 13 12 12 12 12 12 12 12 11 11 10 9 9 8 7 7 5 6 4 7 8 7 7 7 7 6 7
5 5 5 6 5 5 6 7 7 7 7 7 8 8 6 7 9 9 12 12 11 11 11 11 10 10 9 9 8 7 6 3 5 4 5 9 7 7 7 6 7 7 7
6 6 5 5 5 5 4 4 3 5 5 5 5 6 6 6 6 8 12 11 10 10 9 9 8 8 6 6 7 7 3 3 3 4 6 8 6 6 6 7 7 7 7
6 5 5 5 4 4 4 3 3 3 4 5 6 5 5 4 4 5 5 7 7 7 6 7 6 3 3 3 2 3 3 2 2 3 7 8 6 6 6 6 7 7 7
5 5 5 5 4 4 3 3 3 3 3 4 5 4 4 3 3 4 3 3 3 3 3 3 3 4 3 3 2 3 3 2 2 2 6 8 6 6 5 5 6 7 7
5 5 5 4 4 3 3 2 3 3 3 4 4 4 4 3 4 4 3 2 3 3 3 3 3 3 2 3 2 3 2 3 2 2 5 7 6 6 6 6 6 7 7
5 4 4 4 4 3 3 2 2 2 3 3 3 5 4 3 3 3 3 2 2 2 2 2 3 3 2 2 2 2 1 2 2 2 3 6 7 6 6 6 6 7 7
5 4 4 4 4 3 2 2 2 2 3 3 3 4 3 3 3 2 2 2 2 2 2 2 2 2 2 2 2 2 2 1 2 2 2 2 5 8 7 7 7 7 7
5 5 4 3 4 4 3 1 1 2 3 2 2 3 3 2 2 1 1 2 1 1 1 2 1 1 1 1 1 1 2 2 2 3 3 3 2 3 7 8 7 7 7
5 5 4 3 3 3 4 3 2 2 1 1 2 2 2 2 1 1 1 2 0 1 1 0 2 1 1 1 1 2 1 2 2 2 2 3 3 2 2 6 7 7 8
5 5 4 4 3 3 3 3 2 2 2 1 2 2 1 1 1 0 1 1 1 0 0 1 1 1 0 1 0 1 1 1 2 2 2 2 2 3 3 3 4 6 8
6 5 5 4 4 3 3 2 3 2 2 1 1 2 1 1 1 1 1 0 1 0 1 1 1 2 1 1 1 1 2 2 2 2 1 1 2 2 2 3 3 2 3
7 6 6 6 5 4 3 2 1 1 1 1 1 2 1 1 0 1 1 1 1 0 1 1 1 1 1 1 1 1 2 3 3 2 2 2 1 2 2 2 2 3 3
8 7 6 6 6 5 4 3 3 2 2 2 2 1 1 0 1 1 1 2 2 1 0 1 1 1 1 1 1 2 1 0 1 2 1 1 1 1 2 1 2 2 3
9 8 7 6 6 5 5 3 3 2 1 1 1 1 1 0 0 0 0 1 2 1 1 1 0 1 2 1 1 0 2 2 2 0 1 1 1 1 1 2 2 2 3
8 8 8 7 6 6 5 4 3 2 2 2 1 2 1 1 0 0 0 1 1 1 2 2 1 2 1 1 1 0 1 1 3 2 1 1 1 1 1 1 2 2 2
8 8 8 7 7 6 6 5 4 3 2 1 1 1 2 1 1 1 1 0 0 1 1 1 1 0 1 2 2 1 1 1 1 1 2 3 2 1 1 1 2 2 2
Wind_Direction
53 65 77 67 62 59 60 64 68 78 82 85 95 105 111 116 118 123 126 130 139 143 145 146 144 143 141 137 136 136 138 136 134 133 132 132 128 127 131 139 148 134 128
64 74 81 70 63 59 59 61 64 71 78 83 90 99 107 111 114 119 126 128 131 138 146 143 136 137 136 133 133 133 134 136 137 137 140 138 133 131 136 145 143 120 136
72 80 86 69 62 60 59 57 61 65 71 76 84 93 101 104 107 110 120 124 126 131 133 137 134 133 133 134 135 135 134 136 139 145 155 144 135 137 140 144 138 136 143
76 80 78 73 60 60 59 59 61 65 69 77 86 93 99 101 101 102 110 113 117 129 131 128 131 130 130 130 133 135 136 137 145 157 155 137 135 132 141 146 146 147 149
81 81 82 75 63 61 60 62 62 63 66 74 84 89 96 102 103 102 103 103 104 120 129 129 129 127 126 126 129 133 134 137 149 163 136 135 127 132 143 149 152 149 147
92 87 87 78 64 61 61 60 60 63 68 72 80 88 94 102 106 105 105 104 103 110 117 121 125 124 123 122 125 130 132 141 160 133 132 135 130 139 149 153 151 150 150
94 90 89 86 75 67 64 58 60 66 69 72 78 86 93 101 107 109 108 106 106 107 109 112 116 125 123 122 124 131 138 150 142 123 134 129 124 142 152 155 154 153 152
99 100 99 102 89 77 70 64 63 69 71 73 78 84 92 99 105 108 106 106 107 110 112 113 113 113 119 121 120 127 140 159 138 132 131 121 123 144 153 158 158 155 154
100 101 99 110 110 105 85 70 66 69 73 75 79 85 92 100 105 108 107 108 110 113 114 114 113 113 115 114 117 124 139 170 149 130 130 121 130 147 157 158 158 159 161
92 93 98 95 98 108 108 93 80 76 78 82 83 88 96 110 114 116 114 107 108 112 114 115 115 116 117 120 125 132 152 187 141 129 123 115 133 147 154 159 163 164 161
98 98 100 97 95 93 91 99 104 100 93 102 99 101 105 96 101 112 100 106 107 109 112 114 117 124 131 133 135 150 180 160 126 117 109 115 144 154 153 152 156 157 158
114 108 101 95 91 93 89 95 95 92 90 81 75 82 82 82 87 96 109 112 114 119 123 123 135 158 173 139 149 184 167 141 126 124 112 130 149 160 164 165 163 163 167
119 110 109 102 102 96 94 91 79 76 82 87 81 82 82 81 95 99 114 127 133 143 131 141 160 135 114 108 143 147 137 137 130 128 122 144 162 171 173 176 175 177 179
114 109 103 102 95 80 71 82 92 89 82 78 80 71 78 79 76 76 84 91 106 101 100 106 111 105 108 122 125 124 134 142 139 122 126 153 173 185 193 194 191 190 191
121 118 112 110 100 99 85 54 77 72 68 79 75 72 69 80 77 81 78 74 79 91 109 109 99 105 115 125 132 130 125 121 131 135 130 158 178 189 198 205 206 202 198
135 131 124 129 123 121 110 85 78 90 88 72 76 74 67 74 72 78 94 82 80 82 78 90 105 117 103 102 119 124 126 113 123 161 145 154 171 184 192 203 210 209 208
146 140 138 138 128 130 117 119 115 111 96 82 80 83 76 82 82 82 90 100 82 94 106 100 104 111 141 132 118 127 134 136 138 162 175 167 167 179 191 203 214 217 225
148 145 154 146 130 132 121 111 104 88 91 89 85 87 82 72 83 77 81 85 94 112 109 121 112 114 113 125 129 133 133 153 173 187 184 182 190 181 184 194 207 218 229
150 154 157 150 141 138 135 138 125 100 92 101 96 86 87 77 78 78 58 57 143 105 104 119 96 100 126 130 156 157 171 179 176 190 192 189 187 205 198 177 201 219 228
153 157 162 160 152 153 147 142 132 124 133 110 92 78 62 85 77 358 125 25 323 75 93 88 153 139 185 204 44 108 180 177 191 171 203 191 194 204 209 203 201 206 219
161 161 168 168 156 167 163 170 157 149 149 137 116 75 50 33 69 326 347 81 290 24 300 214 203 172 181 159 186 173 162 160 149 169 192 205 186 206 211 217 238 246 199
170 171 173 175 169 178 160 173 159 133 152 125 83 82 54 42 310 198 316 283 340 236 237 245 232 263 163 177 252 235 186 159 163 144 170 184 210 209 213 216 228 242 267
178 179 177 176 172 178 168 170 160 160 178 153 143 135 92 11 342 343 318 320 310 288 100 258 243 244 258 185 285 301 295 36 115 129 131 158 209 252 246 235 234 234 243
182 177 176 175 176 177 180 179 175 171 158 132 147 106 129 138 315 329 335 331 326 355 51 249 118 265 263 239 151 254 324 352 297 187 172 145 166 226 272 283 277 251 241
181 178 172 173 175 175 179 175 186 186 181 165 154 123 230 155 200 322 8 354 333 5 35 19 25 323 299 307 309 227 182 211 248 265 274 284 255 235 234 265 286 283 274
182 182 174 171 175 176 180 181 187 194 198 180 186 163 211 183 185 160 174 336 311 14 54 28 355 16 342 339 321 316 282 265 262 257 256 257 272 282 270 279 266 258 257